Location: Newark
(15.4608°S, 41.1635°W)
Time: 00:38:35
(UTC+00:00)

Explorer 7 - All Passes

Search period start: 31 July 2021 00:00
Search period end: 10 August 2021 00:00
Orbit: 484 x 676 km, 50.3° (Epoch: 30 July)

Date Brightness Start Highest point End Pass type
(mag) Time Alt. Az. Time Alt. Az. Time Alt. Az.
31 Jul - 03:12:19 10° S 03:15:21 20° SE 03:18:15 10° E night (unlit)
31 Jul - 04:52:32 10° WSW 04:55:40 23° NW 04:58:43 10° N night (unlit)
31 Jul - 17:00:00 10° NNW 17:04:24 35° NE 17:08:51 10° ESE daylight
31 Jul - 18:41:06 10° W 18:44:56 23° SW 18:48:46 10° S daylight
01 Aug - 03:15:55 10° SSW 03:19:45 39° SE 03:23:23 10° ENE night (unlit)
01 Aug - 04:58:48 10° WNW 04:59:50 11° WNW 05:00:51 10° NW night (unlit)
01 Aug - 17:03:48 10° NNW 17:08:37 68° NE 17:13:30 10° SE daylight
01 Aug - 18:47:07 10° WSW 18:49:24 13° SW 18:51:42 10° SSW daylight
02 Aug - 03:19:58 10° SW 03:24:04 86° SE 03:27:54 10° NE night (unlit)
02 Aug - 15:31:20 10° NE 15:32:41 11° ENE 15:34:04 10° ENE daylight
02 Aug - 17:08:04 10° NW 17:12:53 64° SW 17:17:46 10° SSE daylight
03 Aug - 01:45:45 10° SSE 01:47:43 13° SE 01:49:37 10° ESE night (unlit)
03 Aug - 03:24:27 10° SW 03:28:18 42° NW 03:31:57 10° NNE night (unlit)
03 Aug - 15:33:13 10° N 15:36:51 21° NE 15:40:33 10° ESE daylight
03 Aug - 17:12:47 10° WNW 17:17:13 35° SW 17:21:42 10° SSE daylight
04 Aug - 01:48:45 10° S 01:52:11 24° SE 01:55:27 10° ENE night (unlit)
04 Aug - 03:29:29 10° WSW 03:32:28 20° NW 03:35:20 10° N night (unlit)
04 Aug - 15:36:34 10° NNW 15:41:01 40° NE 15:45:37 10° ESE daylight
04 Aug - 17:18:04 10° W 17:21:38 20° SW 17:25:14 10° S daylight
05 Aug - 01:52:30 10° SSW 01:56:34 48° SE 02:00:23 10° NE night (unlit)
05 Aug - 15:40:29 10° NW 15:45:14 78° NE 15:50:10 10° SE daylight
05 Aug - 17:24:30 10° WSW 17:26:08 11° SW 17:27:47 10° SSW daylight
06 Aug - 01:56:39 10° SW 02:00:52 79° NW 02:04:48 10° NE night (unlit)
06 Aug - 14:07:14 10° NNE 14:09:19 13° ENE 14:11:27 10° E daylight
06 Aug - 15:44:50 10° NW 15:49:31 55° SW 15:54:21 10° SSE daylight
07 Aug - 00:21:53 10° S 00:24:32 16° SE 00:27:06 10° E night (unlit)
07 Aug - 02:01:13 10° WSW 02:05:04 36° NW 02:08:42 10° NNE night (unlit)
07 Aug - 14:09:41 10° N 14:13:28 24° NE 14:17:23 10° ESE daylight
07 Aug - 15:49:40 10° WNW 15:53:53 30° SW 15:58:12 10° SSE daylight
08 Aug - 00:25:12 10° SSW 00:29:00 29° SE 00:32:35 10° ENE night (unlit)
08 Aug - 02:06:25 10° W 02:09:13 18° NW 02:11:55 10° NNW night (unlit)
08 Aug - 14:13:10 10° NNW 14:17:39 46° NE 14:22:19 10° SE daylight
08 Aug - 15:55:07 10° W 15:58:19 17° SW 16:01:35 10° S daylight
09 Aug - 00:29:03 10° SSW 00:33:22 58° SE 00:37:21 10° NE night (unlit)
09 Aug - 14:17:11 10° NW 14:21:52 90° SW 14:26:46 10° SE daylight
09 Aug - 22:56:01 10° SSE 22:56:48 10° SE 22:57:34 10° SE night (unlit)
